N18929 KLNN-KMNN

Flight info

Callsign N18929
Flight time 0h 56m
Altitude 10000
Route DJB BUD
Aircraft BE76/L-VGD/C

Departure

Time 2026-05-06 19:30
Airport Lake County Executive Airport (KLNN)

Arrival

Time 2026-05-06 20:26
Airport Marion Municipal Airport (KMNN)
Time Latitude Longitude Altitude Speed Heading
2026-05-06 19:13 41.68131 -81.39925 619 ft 0 kts 181°
2026-05-06 19:23 41.68125 -81.39900 619 ft 5 kts 91°
2026-05-06 19:23 41.68153 -81.39863 618 ft 8 kts
2026-05-06 19:23 41.68221 -81.39857 619 ft 10 kts
2026-05-06 19:23 41.68302 -81.39853 619 ft 12 kts
2026-05-06 19:24 41.68374 -81.39820 619 ft 12 kts 45°
2026-05-06 19:24 41.68432 -81.39726 619 ft 14 kts 79°
2026-05-06 19:24 41.68432 -81.39584 618 ft 16 kts 90°
2026-05-06 19:24 41.68474 -81.39482 619 ft 7 kts 118°
2026-05-06 19:25 41.68426 -81.39417 619 ft 12 kts 134°
2026-05-06 19:25 41.68372 -81.39338 619 ft 9 kts 115°
2026-05-06 19:25 41.68410 -81.39261 619 ft 12 kts 44°
2026-05-06 19:25 41.68475 -81.39175 619 ft 14 kts 44°
2026-05-06 19:26 41.68586 -81.39030 619 ft 27 kts 43°
2026-05-06 19:26 41.68717 -81.38857 618 ft 25 kts 44°
2026-05-06 19:26 41.68837 -81.38699 615 ft 23 kts 44°
2026-05-06 19:26 41.68946 -81.38594 615 ft 16 kts
2026-05-06 19:27 41.69044 -81.38598 615 ft 11 kts
2026-05-06 19:27 41.69090 -81.38557 615 ft 8 kts 94°
2026-05-06 19:27 41.69072 -81.38525 615 ft 0 kts 141°
2026-05-06 19:29 41.69066 -81.38517 615 ft 5 kts 135°
2026-05-06 19:29 41.68972 -81.38519 615 ft 25 kts 226°
2026-05-06 19:29 41.68656 -81.38932 645 ft 94 kts 227°
2026-05-06 19:30 41.68110 -81.39614 830 ft 118 kts 227°
2026-05-06 19:30 41.67479 -81.40406 1081 ft 131 kts 227°
2026-05-06 19:30 41.66820 -81.41283 1327 ft 138 kts 231°
2026-05-06 19:30 41.66274 -81.42271 1709 ft 132 kts 243°
2026-05-06 19:31 41.65802 -81.43334 1980 ft 135 kts 245°
2026-05-06 19:31 41.65344 -81.44424 2255 ft 135 kts 245°
2026-05-06 19:31 41.64440 -81.46622 2806 ft 134 kts 246°
2026-05-06 19:32 41.63995 -81.47707 3076 ft 134 kts 247°
2026-05-06 19:32 41.63549 -81.48805 3348 ft 134 kts 247°
2026-05-06 19:32 41.63106 -81.49895 3622 ft 134 kts 247°
2026-05-06 19:32 41.62662 -81.50983 3897 ft 133 kts 247°
2026-05-06 19:33 41.62215 -81.52078 4172 ft 133 kts 248°
2026-05-06 19:33 41.61777 -81.53152 4437 ft 132 kts 247°
2026-05-06 19:33 41.61341 -81.54227 4698 ft 132 kts 247°
2026-05-06 19:33 41.60903 -81.55298 4962 ft 131 kts 247°
2026-05-06 19:34 41.60472 -81.56348 5219 ft 130 kts 246°
2026-05-06 19:34 41.60038 -81.57416 5479 ft 129 kts 247°
2026-05-06 19:34 41.59610 -81.58468 5732 ft 129 kts 247°
2026-05-06 19:34 41.59183 -81.59500 5983 ft 128 kts 247°
2026-05-06 19:35 41.58758 -81.60543 6231 ft 127 kts 247°
2026-05-06 19:35 41.58337 -81.61571 6475 ft 127 kts 247°
2026-05-06 19:35 41.57916 -81.62606 6719 ft 126 kts 247°
2026-05-06 19:35 41.57498 -81.63622 6961 ft 125 kts 246°
2026-05-06 19:36 41.57088 -81.64621 7204 ft 123 kts 246°
2026-05-06 19:36 41.56676 -81.65627 7444 ft 122 kts 246°
2026-05-06 19:36 41.56270 -81.66621 7689 ft 120 kts 246°
2026-05-06 19:36 41.55872 -81.67590 7915 ft 119 kts 245°
2026-05-06 19:37 41.55478 -81.68554 8112 ft 120 kts 246°
2026-05-06 19:37 41.55072 -81.69544 8272 ft 122 kts 245°
2026-05-06 19:37 41.54661 -81.70544 8396 ft 125 kts 245°
2026-05-06 19:37 41.54382 -81.71224 8477 ft 125 kts 245°
2026-05-06 19:38 41.53818 -81.72591 8643 ft 125 kts 245°
2026-05-06 19:38 41.53401 -81.73601 8768 ft 124 kts 245°
2026-05-06 19:38 41.52989 -81.74612 8890 ft 124 kts 245°
2026-05-06 19:38 41.52575 -81.75613 9013 ft 124 kts 245°
2026-05-06 19:39 41.52174 -81.76594 9135 ft 122 kts 245°
2026-05-06 19:39 41.51766 -81.77581 9260 ft 121 kts 244°
2026-05-06 19:39 41.51363 -81.78568 9378 ft 121 kts 245°
2026-05-06 19:39 41.50960 -81.79538 9499 ft 120 kts 245°
2026-05-06 19:40 41.50560 -81.80508 9620 ft 119 kts 245°
2026-05-06 19:40 41.50164 -81.81464 9731 ft 118 kts 245°
2026-05-06 19:40 41.49766 -81.82437 9845 ft 118 kts 245°
2026-05-06 19:40 41.49376 -81.83385 9961 ft 117 kts 244°
2026-05-06 19:41 41.48980 -81.84347 9979 ft 122 kts 245°
2026-05-06 19:41 41.48560 -81.85365 9976 ft 126 kts 244°
2026-05-06 19:41 41.48135 -81.86390 9971 ft 127 kts 245°
2026-05-06 19:41 41.47706 -81.87430 9971 ft 128 kts 244°
2026-05-06 19:42 41.47282 -81.88460 9972 ft 129 kts 245°
2026-05-06 19:42 41.46840 -81.89526 9973 ft 131 kts 245°
2026-05-06 19:42 41.46402 -81.90590 9974 ft 131 kts 244°
2026-05-06 19:42 41.45958 -81.91660 9969 ft 132 kts 244°
2026-05-06 19:43 41.45519 -81.92722 9970 ft 131 kts 244°
2026-05-06 19:43 41.45078 -81.93792 9972 ft 131 kts 244°
2026-05-06 19:43 41.44632 -81.94857 9971 ft 132 kts 244°
2026-05-06 19:43 41.44188 -81.95921 9969 ft 131 kts 245°
2026-05-06 19:44 41.43739 -81.96984 9966 ft 131 kts 244°
2026-05-06 19:44 41.43296 -81.98041 9966 ft 131 kts 244°
2026-05-06 19:44 41.42852 -81.99103 9968 ft 130 kts 244°
2026-05-06 19:44 41.42414 -82.00154 9967 ft 130 kts 244°
2026-05-06 19:45 41.41970 -82.01216 9965 ft 130 kts 245°
2026-05-06 19:45 41.41529 -82.02268 9968 ft 130 kts 245°
2026-05-06 19:45 41.41095 -82.03318 9968 ft 130 kts 244°
2026-05-06 19:45 41.40652 -82.04392 9973 ft 130 kts 244°
2026-05-06 19:46 41.40208 -82.05447 9971 ft 131 kts 245°
2026-05-06 19:46 41.39771 -82.06494 9967 ft 131 kts 244°
2026-05-06 19:46 41.39331 -82.07568 9969 ft 131 kts 245°
2026-05-06 19:46 41.38890 -82.08621 9969 ft 131 kts 244°
2026-05-06 19:47 41.38449 -82.09676 9970 ft 130 kts 245°
2026-05-06 19:47 41.38010 -82.10736 9971 ft 131 kts 245°
2026-05-06 19:47 41.37565 -82.11800 9974 ft 131 kts 244°
2026-05-06 19:47 41.37122 -82.12865 9971 ft 131 kts 245°
2026-05-06 19:48 41.36682 -82.13924 9974 ft 131 kts 245°
2026-05-06 19:48 41.36238 -82.14984 9972 ft 131 kts 244°
2026-05-06 19:48 41.35779 -82.16021 9966 ft 133 kts 238°
2026-05-06 19:48 41.35109 -82.16888 9969 ft 135 kts 230°
2026-05-06 19:49 41.34426 -82.17738 9972 ft 134 kts 230°
2026-05-06 19:49 41.33751 -82.18583 9969 ft 135 kts 230°
2026-05-06 19:49 41.33066 -82.19436 9972 ft 135 kts 230°
2026-05-06 19:49 41.32376 -82.20291 9972 ft 135 kts 230°
2026-05-06 19:50 41.31688 -82.21145 9971 ft 135 kts 231°
2026-05-06 19:50 41.30999 -82.21994 9970 ft 135 kts 230°
2026-05-06 19:50 41.30314 -82.22846 9968 ft 134 kts 230°
2026-05-06 19:50 41.29628 -82.23691 9968 ft 134 kts 230°
2026-05-06 19:51 41.28944 -82.24538 9972 ft 134 kts 231°
2026-05-06 19:51 41.28258 -82.25382 9970 ft 135 kts 230°
2026-05-06 19:51 41.27566 -82.26235 9965 ft 135 kts 230°
2026-05-06 19:51 41.26882 -82.27077 9963 ft 135 kts 230°
2026-05-06 19:52 41.26192 -82.27924 9961 ft 135 kts 230°
2026-05-06 19:52 41.25503 -82.28773 9962 ft 135 kts 230°
2026-05-06 19:52 41.24809 -82.29620 9956 ft 135 kts 230°
2026-05-06 19:52 41.24125 -82.30466 9957 ft 134 kts 230°
2026-05-06 19:53 41.23431 -82.31317 9957 ft 135 kts 230°
2026-05-06 19:53 41.22746 -82.32159 9955 ft 135 kts 230°
2026-05-06 19:53 41.22053 -82.33005 9954 ft 135 kts 230°
2026-05-06 19:53 41.21368 -82.33850 9952 ft 134 kts 230°
2026-05-06 19:54 41.20677 -82.34699 9954 ft 135 kts 230°
2026-05-06 19:54 41.19985 -82.35549 9952 ft 135 kts 230°
2026-05-06 19:54 41.19297 -82.36391 9949 ft 135 kts 230°
2026-05-06 19:54 41.18603 -82.37241 9952 ft 135 kts 230°
2026-05-06 19:55 41.17918 -82.38084 9950 ft 135 kts 230°
2026-05-06 19:55 41.17228 -82.38926 9958 ft 135 kts 230°
2026-05-06 19:55 41.16534 -82.39780 9958 ft 135 kts 230°
2026-05-06 19:55 41.15849 -82.40619 9962 ft 134 kts 230°
2026-05-06 19:56 41.15153 -82.41468 9960 ft 135 kts 230°
2026-05-06 19:56 41.14461 -82.42316 9958 ft 135 kts 230°
2026-05-06 19:56 41.13771 -82.43161 9957 ft 135 kts 230°
2026-05-06 19:56 41.13075 -82.44010 9961 ft 135 kts 230°
2026-05-06 19:57 41.12387 -82.44851 9961 ft 135 kts 231°
2026-05-06 19:57 41.11701 -82.45692 9959 ft 135 kts 230°
2026-05-06 19:57 41.11005 -82.46542 9961 ft 135 kts 230°
2026-05-06 19:57 41.10312 -82.47386 9961 ft 135 kts 230°
2026-05-06 19:58 41.09626 -82.48225 9961 ft 135 kts 230°
2026-05-06 19:58 41.08937 -82.49067 9958 ft 134 kts 230°
2026-05-06 19:58 41.08250 -82.49903 9959 ft 134 kts 230°
2026-05-06 19:58 41.07561 -82.50746 9961 ft 134 kts 230°
2026-05-06 19:59 41.06873 -82.51588 9963 ft 135 kts 230°
2026-05-06 19:59 41.06184 -82.52425 9959 ft 135 kts 230°
2026-05-06 19:59 41.05492 -82.53268 9959 ft 135 kts 230°
2026-05-06 19:59 41.04800 -82.54112 9963 ft 135 kts 230°
2026-05-06 20:00 41.04112 -82.54954 9963 ft 134 kts 230°
2026-05-06 20:00 41.03428 -82.55786 9967 ft 134 kts 230°
2026-05-06 20:00 41.02736 -82.56632 9963 ft 135 kts 230°
2026-05-06 20:00 41.02051 -82.57459 9970 ft 133 kts 230°
2026-05-06 20:01 41.01346 -82.58324 9811 ft 141 kts 230°
2026-05-06 20:01 41.00633 -82.59188 9777 ft 137 kts 230°
2026-05-06 20:01 40.99938 -82.60029 9801 ft 133 kts 230°
2026-05-06 20:01 40.99257 -82.60857 9813 ft 131 kts 231°
2026-05-06 20:02 40.98587 -82.61672 9824 ft 130 kts 231°
2026-05-06 20:02 40.97932 -82.62472 9864 ft 128 kts 230°
2026-05-06 20:02 40.97283 -82.63273 9901 ft 126 kts 231°
2026-05-06 20:02 40.96640 -82.64071 9936 ft 126 kts 231°
2026-05-06 20:03 40.96007 -82.64858 9974 ft 125 kts 231°
2026-05-06 20:03 40.95357 -82.65662 9985 ft 130 kts 230°
2026-05-06 20:03 40.94682 -82.66489 9982 ft 133 kts 230°
2026-05-06 20:03 40.94004 -82.67317 9978 ft 134 kts 230°
2026-05-06 20:04 40.93316 -82.68155 9980 ft 135 kts 229°
2026-05-06 20:04 40.92614 -82.69006 9984 ft 136 kts 229°
2026-05-06 20:04 40.91912 -82.69852 9978 ft 137 kts 229°
2026-05-06 20:04 40.91208 -82.70705 9983 ft 137 kts 230°
2026-05-06 20:05 40.90506 -82.71559 9983 ft 137 kts 230°
2026-05-06 20:05 40.89802 -82.72407 9978 ft 137 kts 229°
2026-05-06 20:05 40.89122 -82.73239 9980 ft 137 kts 230°
2026-05-06 20:05 40.88418 -82.74089 9984 ft 137 kts 230°
2026-05-06 20:06 40.87719 -82.74931 9987 ft 137 kts 229°
2026-05-06 20:06 40.87016 -82.75784 9975 ft 136 kts 230°
2026-05-06 20:06 40.86317 -82.76628 9976 ft 136 kts 230°
2026-05-06 20:06 40.85609 -82.77484 9980 ft 136 kts 230°
2026-05-06 20:07 40.84915 -82.78324 9980 ft 136 kts 230°
2026-05-06 20:07 40.84212 -82.79172 9976 ft 136 kts 230°
2026-05-06 20:07 40.83516 -82.80009 9974 ft 136 kts 230°
2026-05-06 20:07 40.82817 -82.80858 9951 ft 137 kts 230°
2026-05-06 20:08 40.82093 -82.81737 9759 ft 146 kts 230°
2026-05-06 20:08 40.81332 -82.82664 9539 ft 152 kts 229°
2026-05-06 20:08 40.80528 -82.83636 9236 ft 159 kts 228°
2026-05-06 20:08 40.79700 -82.84634 8900 ft 164 kts 229°
2026-05-06 20:09 40.78858 -82.85642 8557 ft 167 kts 228°
2026-05-06 20:09 40.77997 -82.86683 8221 ft 169 kts 228°
2026-05-06 20:09 40.77117 -82.87736 7876 ft 171 kts 228°
2026-05-06 20:09 40.76243 -82.88792 7542 ft 174 kts 227°
2026-05-06 20:10 40.75345 -82.89874 7204 ft 176 kts 227°
2026-05-06 20:10 40.74434 -82.90971 6865 ft 179 kts 227°
2026-05-06 20:10 40.73540 -82.92136 6508 ft 179 kts 238°
2026-05-06 20:10 40.73156 -82.93657 6159 ft 177 kts 259°
2026-05-06 20:11 40.72860 -82.95245 5823 ft 178 kts 259°
2026-05-06 20:11 40.72569 -82.96820 5500 ft 178 kts 259°
2026-05-06 20:11 40.72286 -82.98402 5189 ft 178 kts 260°
2026-05-06 20:11 40.71997 -82.99983 4871 ft 178 kts 260°
2026-05-06 20:12 40.71704 -83.01577 4554 ft 179 kts 260°
2026-05-06 20:12 40.71418 -83.03161 4238 ft 179 kts 260°
2026-05-06 20:12 40.70985 -83.04694 3889 ft 186 kts 238°
2026-05-06 20:12 40.70124 -83.05964 3576 ft 186 kts 232°
2026-05-06 20:13 40.69253 -83.07230 3264 ft 187 kts 231°
2026-05-06 20:13 40.68380 -83.08486 2961 ft 187 kts 231°
2026-05-06 20:13 40.67408 -83.09641 2737 ft 188 kts 210°
2026-05-06 20:13 40.66160 -83.09679 2773 ft 182 kts 161°
2026-05-06 20:14 40.65057 -83.08939 2855 ft 175 kts 150°
2026-05-06 20:14 40.64014 -83.08128 2927 ft 173 kts 149°
2026-05-06 20:14 40.62982 -83.07310 2997 ft 172 kts 149°
2026-05-06 20:14 40.62095 -83.06269 2975 ft 174 kts 117°
2026-05-06 20:15 40.61720 -83.04776 2988 ft 172 kts 103°
2026-05-06 20:15 40.61506 -83.03227 2969 ft 170 kts 80°
2026-05-06 20:15 40.61962 -83.01864 2985 ft 163 kts 53°
2026-05-06 20:15 40.62526 -83.00568 2977 ft 166 kts 61°
2026-05-06 20:16 40.62946 -82.99133 2961 ft 168 kts 64°
2026-05-06 20:16 40.63344 -82.97686 2892 ft 170 kts 65°
2026-05-06 20:16 40.63720 -82.96201 2883 ft 169 kts 67°
2026-05-06 20:16 40.64086 -82.94733 2883 ft 168 kts 68°
2026-05-06 20:17 40.64427 -82.93264 2888 ft 168 kts 70°
2026-05-06 20:17 40.64750 -82.91801 2886 ft 168 kts 69°
2026-05-06 20:17 40.65120 -82.90335 2870 ft 166 kts 56°
2026-05-06 20:17 40.65960 -82.89383 2888 ft 158 kts 27°
2026-05-06 20:18 40.66892 -82.88628 2884 ft 158 kts 27°
2026-05-06 20:18 40.67834 -82.87880 2881 ft 159 kts 26°
2026-05-06 20:18 40.68779 -82.87123 2879 ft 159 kts 28°
2026-05-06 20:18 40.69424 -82.85934 2875 ft 170 kts 72°
2026-05-06 20:19 40.69225 -82.84394 2870 ft 177 kts 118°
2026-05-06 20:19 40.68285 -82.83396 2868 ft 177 kts 162°
2026-05-06 20:19 40.67090 -82.83466 2873 ft 170 kts 207°
2026-05-06 20:19 40.66296 -82.84497 2880 ft 160 kts 246°
2026-05-06 20:20 40.65850 -82.85838 2874 ft 160 kts 252°
2026-05-06 20:20 40.65462 -82.87240 2746 ft 165 kts 255°
2026-05-06 20:20 40.65104 -82.88654 2500 ft 158 kts 256°
2026-05-06 20:20 40.64778 -82.90013 2238 ft 152 kts 258°
2026-05-06 20:21 40.64472 -82.91328 1976 ft 150 kts 259°
2026-05-06 20:21 40.64194 -82.92622 1721 ft 146 kts 259°
2026-05-06 20:21 40.63945 -82.93861 1603 ft 128 kts 260°
2026-05-06 20:21 40.63728 -82.94910 1618 ft 111 kts 263°
2026-05-06 20:22 40.63529 -82.95847 1628 ft 104 kts 263°
2026-05-06 20:22 40.63346 -82.96756 1626 ft 100 kts 264°
2026-05-06 20:22 40.63173 -82.97629 1629 ft 96 kts 264°
2026-05-06 20:22 40.63019 -82.98465 1648 ft 87 kts 266°
2026-05-06 20:23 40.62872 -82.99241 1633 ft 88 kts 264°
2026-05-06 20:23 40.62732 -83.00025 1634 ft 86 kts 263°
2026-05-06 20:23 40.62597 -83.00785 1635 ft 84 kts 266°
2026-05-06 20:23 40.62463 -83.01548 1640 ft 89 kts 267°
2026-05-06 20:24 40.62321 -83.02356 1634 ft 89 kts 265°
2026-05-06 20:24 40.62178 -83.03141 1635 ft 87 kts 265°
2026-05-06 20:24 40.62006 -83.03900 1623 ft 91 kts 248°
2026-05-06 20:24 40.61569 -83.04568 1621 ft 97 kts 230°
2026-05-06 20:25 40.61068 -83.05198 1567 ft 99 kts 233°
2026-05-06 20:25 40.60609 -83.05843 1505 ft 97 kts 239°
2026-05-06 20:25 40.60194 -83.06547 1440 ft 95 kts 240°
2026-05-06 20:25 40.59989 -83.07256 1382 ft 71 kts 288°
2026-05-06 20:26 40.60345 -83.07606 1334 ft 69 kts 351°
2026-05-06 20:26 40.60809 -83.07625 1201 ft 63 kts 11°
2026-05-06 20:26 40.61100 -83.07216 1016 ft 59 kts 49°
2026-05-06 20:26 40.61292 -83.06808 984 ft 43 kts 59°
2026-05-06 20:27 40.61420 -83.06556 984 ft 22 kts 14°
2026-05-06 20:27 40.61533 -83.06555 984 ft 12 kts
2026-05-06 20:27 40.61620 -83.06556 984 ft 12 kts
2026-05-06 20:27 40.61661 -83.06636 984 ft 13 kts 269°
2026-05-06 20:28 40.61678 -83.06758 982 ft 12 kts 352°
2026-05-06 20:28 40.61750 -83.06747 982 ft 4 kts 336°
2026-05-06 20:28 40.61760 -83.06767 982 ft 6 kts 253°
2026-05-06 20:28 40.61755 -83.06778 982 ft 0 kts 246°